Wind_Speed
7 7 4 6 6 5 2 1 3 4 5 6 5 5 5 5 4 6 8 10 11 12 11 10 9 8 8 9 10 11 13 15
7 7 8 7 8 7 5 4 4 4 6 7 7 6 7 7 7 7 8 9 10 11 11 9 9 9 10 10 10 13 15 17
9 9 12 12 13 11 10 8 6 7 7 7 7 8 8 8 8 8 9 9 10 10 10 11 10 11 11 12 13 15 18 20
16 17 18 18 17 16 13 11 11 10 10 10 10 10 9 9 8 9 9 10 10 12 12 13 13 14 15 16 17 19 22 24
25 23 24 21 18 17 16 15 14 13 13 12 11 11 10 10 9 10 10 11 12 14 15 16 16 18 19 20 21 24 26 29
29 26 24 17 14 14 15 15 14 12 12 14 14 14 12 12 12 14 15 15 16 17 19 20 20 22 24 25 26 29 31 33
32 28 24 17 15 13 15 15 15 15 15 15 14 14 14 14 15 17 19 18 22 22 21 23 25 26 28 29 31 33 35 37
29 28 22 17 16 16 16 17 17 16 16 17 17 17 17 16 16 18 21 24 23 24 26 27 28 29 30 32 34 36 37 39
29 27 25 23 22 22 22 22 21 18 18 18 19 20 20 20 20 22 24 26 28 28 29 31 38 38 35 34 36 38 41 46
24 24 26 25 24 22 23 23 23 23 20 21 21 23 24 24 25 26 28 28 29 31 32 35 37 38 43 44 37 40 47 39
22 21 21 21 21 21 24 23 23 23 22 21 20 20 22 24 25 26 30 30 30 32 35 38 44 49 44 44 45 47 45 39
22 20 19 18 20 21 22 23 24 23 22 21 23 24 23 23 26 25 26 27 31 34 37 41 44 44 46 41 44 46 33 23
20 20 18 18 17 19 22 22 22 23 22 23 21 21 24 28 30 28 26 26 28 32 34 30 27 29 28 28 19 15 18 17
21 18 18 17 18 21 23 20 19 19 19 20 22 23 24 23 20 20 20 22 23 23 21 18 15 16 16 16 16 15 14 14
22 20 20 18 20 22 19 20 19 18 21 21 19 20 22 22 21 22 23 21 18 18 17 15 15 16 15 13 12 13 14 15
23 22 20 20 21 20 18 18 16 15 14 17 19 19 19 17 16 16 14 14 14 15 16 15 13 13 13 11 12 13 15 16
29 24 22 22 18 17 16 15 15 13 12 13 13 14 14 18 19 22 22 19 18 16 16 15 14 15 11 11 12 15 15 15
27 25 25 21 19 18 17 17 15 12 12 12 14 15 15 19 20 21 23 20 16 14 13 13 12 11 11 12 13 14 14 15
28 27 24 21 21 19 18 18 16 13 14 16 17 19 19 18 18 20 22 19 16 15 15 15 14 14 14 15 15 15 14 15
28 27 24 23 24 23 20 18 17 16 16 17 16 16 15 16 17 18 18 15 14 15 16 16 16 16 15 16 16 14 14 14
Wind_Direction
196 183 210 236 239 228 211 19 346 347 334 323 316 293 274 255 250 240 241 245 248 253 257 264 272 286 298 312 321 330 331 331
230 237 223 235 235 226 225 244 282 314 321 317 307 295 280 263 251 245 248 250 252 253 257 245 258 271 289 299 311 319 321 323
233 244 248 239 244 236 229 240 259 281 284 288 293 282 274 268 261 250 245 241 245 247 252 261 264 278 285 295 304 312 316 318
244 251 250 235 235 241 243 250 262 270 277 283 284 286 281 279 271 254 240 235 242 248 254 264 277 286 293 294 301 306 308 311
249 257 249 233 237 242 250 254 258 271 278 281 283 286 283 278 271 263 256 254 257 262 267 273 279 284 289 291 295 299 302 306
247 250 237 227 235 253 261 264 271 278 280 282 283 286 282 270 264 259 259 267 276 273 272 274 280 285 288 291 294 298 303 306
248 240 234 230 240 253 263 271 273 276 274 271 271 274 275 273 264 260 260 260 268 272 275 277 281 285 287 289 292 296 299 304
238 235 234 237 244 255 263 266 268 271 271 270 272 269 268 271 272 272 271 270 267 270 272 278 285 284 285 287 291 294 299 302
231 229 231 240 247 253 260 266 268 267 267 265 265 265 266 270 272 271 269 266 272 274 273 267 272 280 280 285 289 292 296 301
220 222 231 241 247 254 260 261 263 269 265 272 271 271 268 267 272 272 272 269 270 272 273 276 281 280 285 293 295 303 315 309
208 218 229 240 250 256 261 261 261 261 261 267 270 276 278 273 276 275 271 269 272 273 274 280 280 279 280 285 291 296 303 300
206 219 236 245 254 258 257 262 264 262 264 264 267 275 272 273 274 277 277 276 274 274 277 282 284 296 294 287 291 289 301 306
213 223 234 242 251 260 266 266 266 264 268 266 269 269 271 274 275 276 275 275 280 280 292 300 303 308 303 288 309 308 309 317
220 228 239 245 253 259 264 264 261 258 261 265 262 265 268 267 268 271 280 285 294 300 301 303 306 301 309 312 317 316 321 328
229 231 241 250 260 262 260 258 259 256 259 259 260 258 261 271 279 281 290 295 291 301 312 321 311 310 323 326 329 327 329 331
235 234 241 249 250 252 253 255 250 245 252 256 259 264 272 283 295 298 296 300 311 314 320 320 318 323 328 335 331 325 323 325
227 232 237 237 238 242 242 241 239 237 240 243 258 269 279 282 287 291 294 300 308 316 321 320 317 323 321 322 325 320 320 322
222 225 227 226 229 237 236 235 235 235 247 260 271 274 275 278 283 289 294 299 306 318 319 319 319 318 314 320 318 315 319 321
221 218 220 219 228 235 234 235 241 247 257 265 270 273 274 275 282 292 295 297 303 312 313 313 312 312 319 322 319 315 318 319
213 218 219 226 229 234 237 244 249 253 260 268 274 278 276 271 279 292 288 286 292 297 301 304 303 302 306 315 310 310 315 317
Height
5860 5861 5863 5864 5865 5865 5865 5865 5865 5865 5866 5866 5866 5866 5866 5867 5867 5868 5868 5870 5871 5872 5871 5871 5870 5869 5869 5868 5868 5867 5865 5863
5859 5860 5861 5862 5863 5863 5863 5863 5863 5864 5864 5865 5865 5865 5865 5865 5865 5865 5866 5867 5868 5868 5869 5868 5867 5867 5866 5866 5865 5865 5863 5860
5855 5857 5858 5859 5860 5860 5859 5860 5861 5861 5861 5862 5863 5863 5863 5863 5863 5863 5863 5864 5865 5865 5865 5866 5866 5865 5864 5863 5862 5861 5859 5857
5853 5853 5853 5854 5855 5857 5857 5858 5858 5859 5859 5860 5860 5860 5861 5862 5862 5861 5861 5862 5862 5862 5862 5863 5864 5863 5862 5861 5859 5857 5855 5854
5848 5849 5849 5850 5852 5854 5856 5856 5856 5857 5858 5858 5858 5858 5859 5860 5860 5861 5862 5861 5860 5860 5860 5860 5860 5859 5858 5857 5856 5854 5852 5850
5842 5843 5846 5848 5850 5851 5853 5854 5855 5856 5857 5857 5856 5857 5857 5857 5857 5858 5858 5859 5859 5858 5857 5856 5856 5855 5854 5853 5851 5849 5846 5844
5835 5837 5842 5844 5846 5849 5851 5852 5852 5853 5853 5853 5853 5854 5855 5855 5855 5854 5854 5854 5854 5855 5854 5854 5853 5851 5849 5848 5845 5843 5841 5838
5829 5833 5838 5840 5842 5844 5847 5848 5848 5848 5849 5849 5850 5850 5851 5851 5852 5852 5853 5851 5850 5850 5849 5849 5848 5846 5844 5842 5841 5838 5836 5832
5824 5828 5833 5835 5837 5840 5842 5845 5845 5844 5844 5845 5845 5846 5846 5847 5847 5847 5848 5846 5846 5846 5845 5841 5840 5840 5839 5837 5835 5833 5830 5826
5819 5823 5828 5830 5832 5835 5838 5840 5840 5840 5840 5840 5840 5841 5841 5841 5841 5842 5842 5841 5840 5840 5838 5836 5834 5834 5833 5831 5829 5827 5824 5820
5814 5820 5823 5826 5828 5831 5834 5835 5835 5836 5836 5836 5837 5837 5837 5836 5837 5836 5836 5835 5835 5834 5832 5831 5828 5827 5826 5825 5823 5820 5818 5814
5810 5816 5819 5821 5823 5826 5828 5829 5830 5830 5831 5831 5832 5832 5832 5832 5832 5832 5831 5830 5830 5828 5826 5824 5821 5819 5818 5817 5815 5814 5811 5808
5807 5811 5814 5817 5819 5822 5824 5824 5825 5824 5825 5825 5826 5827 5826 5827 5827 5826 5826 5825 5825 5823 5821 5818 5816 5815 5812 5810 5809 5808 5806 5804
5803 5807 5809 5812 5814 5816 5819 5819 5820 5819 5820 5821 5821 5821 5821 5821 5822 5821 5821 5821 5820 5818 5816 5813 5812 5811 5810 5807 5806 5805 5802 5799
5799 5801 5804 5807 5808 5811 5814 5815 5815 5815 5816 5816 5817 5818 5818 5819 5820 5818 5818 5817 5816 5814 5812 5810 5809 5808 5805 5803 5802 5801 5799 5797
5795 5797 5800 5802 5805 5808 5810 5811 5811 5810 5811 5813 5815 5815 5816 5817 5816 5816 5814 5812 5811 5810 5808 5807 5806 5805 5802 5800 5799 5798 5797 5796
5790 5793 5796 5799 5801 5804 5806 5807 5808 5807 5808 5810 5812 5812 5812 5813 5812 5812 5812 5809 5808 5806 5806 5804 5803 5802 5800 5798 5797 5796 5795 5793
5785 5788 5792 5795 5798 5800 5801 5803 5804 5804 5806 5807 5808 5808 5808 5808 5808 5808 5808 5806 5805 5803 5802 5802 5800 5799 5798 5796 5795 5794 5792 5791
5782 5786 5788 5790 5794 5796 5797 5799 5800 5801 5802 5803 5803 5803 5803 5803 5804 5804 5804 5802 5801 5800 5799 5798 5797 5796 5795 5794 5793 5791 5790 5788
5777 5780 5784 5786 5788 5792 5793 5794 5795 5796 5798 5798 5798 5799 5798 5799 5799 5798 5800 5799 5797 5797 5796 5795 5794 5793 5792 5791 5790 5789 5787 5785